Вернуться в каталог

GALILEO 23

2C9

АктивенНавигацияMEO
NORAD 43566·PAYLOAD·🇪🇺 EU

Запущен Jul 25, 2018 с Guiana Space Centre

Loading…

Ближайшие Пролёты (ближайшие 24 часа)

TLE

СвежийSource: CelesTrak SupGP

Эпоха: Sep 13, 2026, 23:59 UTC

1 43566C 18060C   26256.99979167  .00000000  00000+0  00000+0 0  2561
2 43566  57.1361 339.3875 0003528 273.2845  37.7070  1.70476559    15

Отслеживайте GALILEO 23 в реальном времени с AllMySat

Download on the App Store